Location: Unspecified
(52.5862°N, 0.0000°E)
Time: 00:26:39
(UTC+00:00)

Cosmos 2228 Rocket - Visible Passes

Search period start: 04 April 2026 00:00
Search period end: 14 April 2026 00:00
Orbit: 614 x 645 km, 82.5° (Epoch: 29 March)

Date Brightness Start Highest point End Pass type
(mag) Time Alt. Az. Time Alt. Az. Time Alt. Az.
4 Apr 3.9 19:29:44 10° N 19:33:55 35° ENE 19:38:02 10° SE visible
4 Apr 4.7 21:07:55 10° NNW 21:11:58 32° W 21:15:28 13° SSW visible
5 Apr 3.2 19:50:03 10° N 19:54:34 60° ENE 19:59:00 10° SSE visible
5 Apr 5.6 21:29:01 10° NW 21:32:11 19° W 21:35:20 10° SW visible
6 Apr 3.3 20:10:32 10° NNW 20:15:04 77° W 20:19:33 10° S visible
6 Apr 6.1 21:51:09 10° WNW 21:52:18 11° WNW 21:53:25 10° W visible
7 Apr 4.3 20:31:11 10° NNW 20:35:28 42° W 20:39:41 10° SSW visible
8 Apr 5.3 20:52:05 10° NNW 20:55:45 24° W 20:59:21 10° SW visible
9 Apr 3.1 19:33:56 10° N 19:38:29 81° E 19:42:57 10° SSE visible
9 Apr 5.9 21:13:30 10° NW 21:15:54 14° W 21:18:17 10° WSW visible
10 Apr 3.8 19:54:29 10° NNW 19:58:56 56° W 20:03:18 10° S visible
11 Apr 5.0 20:15:16 10° NNW 20:19:15 32° W 20:23:12 10° SSW visible
12 Apr 5.8 20:36:22 10° NW 20:39:28 19° W 20:42:33 10° SW visible
13 Apr 6.4 20:58:40 10° WNW 20:59:34 11° WNW 21:00:28 10° W visible
